カタログに戻る

KUIPER-00186

運用中通信LEO
NORAD 67140·PAYLOAD·🇺🇸 United States

打ち上げ Dec 15, 2025 から Cape Canaveral Space Force Station

Loading…

次のパス (今後24時間)

TLE

最新Source: CelesTrak SupGP

元期: Sep 15, 2026, 02:40 UTC

1 67140C 25301H   26258.11157407 -.00041541  00000+0 -54363-2 0  2585
2 67140  51.9023 320.5280 0000335  96.1540 143.1388 14.79984486    15

AllMySatでKUIPER-00186をリアルタイム追跡

Download on the App Store